Location: Gugi
(45.4667°N, 11.1000°E)
Time: 22:27:02
(UTC+00:00)

IRS-1A Rocket - Pass Details

Date: 17 November 2019
Orbit: 852 x 931 km, 99.2° (Epoch: 12 December)

Event Time Altitude Azimuth Distance (km) Brightness Sun altitude
Exits shadow 17:56:23 50° 71° (ENE) 1,118 4.4 -23.1°
Maximum altitude 17:56:28 50° 68° (ENE) 1,118 4.4 -23.1°
Drops below altitude 10° 18:02:00 10° 355° (N) 2,587 6.7 -24.1°
Sets 18:04:30 0° 350° (N) 3,544 7.5 -24.5°
